Time,TemperatureF,DewpointF,PressureIn,WindDirection,WindDirectionDegrees,WindSpeedMPH,WindSpeedGustMPH,Humidity,HourlyPrecipIn,Conditions,Clouds,dailyrainin,SoftwareType,DateUTC
2013-01-14 00:00:00,10.0,1.2,30.21,South,180,8.2,8.2,67,0.00,,---,0.00,VWS V13.01,2013-01-14 07:00:00,
2013-01-14 00:05:00,10.0,1.2,30.21,SSW,202,7.1,7.1,67,0.00,,---,0.00,VWS V13.01,2013-01-14 07:05:00,
2013-01-14 00:10:00,10.0,1.2,30.21,SSW,202,7.3,7.3,67,0.00,,---,0.00,VWS V13.01,2013-01-14 07:10:00,
2013-01-14 00:16:00,10.0,1.2,30.21,SSW,202,10.0,10.0,67,0.00,,---,0.00,VWS V13.01,2013-01-14 07:16:00,
2013-01-14 00:21:00,10.0,1.2,30.21,South,180,0.4,0.4,67,0.00,,---,0.00,VWS V13.01,2013-01-14 07:21:00,
2013-01-14 00:26:00,10.0,1.2,30.21,SSW,202,5.8,6.4,67,0.00,,---,0.00,VWS V13.01,2013-01-14 07:26:00,
2013-01-14 00:32:00,10.0,1.2,30.21,SW,225,6.4,9.8,67,0.00,,---,0.00,VWS V13.01,2013-01-14 07:32:00,
2013-01-14 00:38:00,10.0,1.2,30.21,South,180,4.9,4.9,67,0.00,,---,0.00,VWS V13.01,2013-01-14 07:38:00,
2013-01-14 00:43:00,10.0,1.2,30.21,SSW,202,10.0,10.0,67,0.00,,---,0.00,VWS V13.01,2013-01-14 07:43:00,
2013-01-14 00:49:00,10.0,1.2,30.21,South,180,6.7,6.7,67,0.00,,---,0.00,VWS V13.01,2013-01-14 07:49:00,
2013-01-14 00:54:00,10.0,1.6,30.21,South,180,4.4,4.4,68,0.00,,---,0.00,VWS V13.01,2013-01-14 07:54:00,
2013-01-14 01:00:00,10.0,1.2,30.22,SSW,202,0.0,0.0,67,0.00,,---,0.00,VWS V13.01,2013-01-14 08:00:00,
2013-01-14 01:05:00,10.2,1.4,30.22,SSW,202,0.0,0.0,67,0.00,,---,0.00,VWS V13.01,2013-01-14 08:05:00,
2013-01-14 01:10:00,10.2,1.4,30.22,SSW,202,1.1,1.1,67,0.00,,---,0.00,VWS V13.01,2013-01-14 08:10:00,
2013-01-14 01:15:00,10.2,1.4,30.22,SSW,202,6.2,6.2,67,0.00,,---,0.00,VWS V13.01,2013-01-14 08:15:00,
2013-01-14 01:21:00,10.2,1.4,30.22,SSW,202,6.2,6.2,67,0.00,,---,0.00,VWS V13.01,2013-01-14 08:21:00,
2013-01-14 01:27:00,10.2,1.4,30.22,SSW,202,8.7,8.7,67,0.00,,---,0.00,VWS V13.01,2013-01-14 08:27:00,
2013-01-14 01:33:00,10.2,1.4,30.21,South,180,5.3,5.3,67,0.00,,---,0.00,VWS V13.01,2013-01-14 08:33:00,
2013-01-14 01:38:00,10.2,1.4,30.22,SW,225,11.6,11.6,67,0.00,,---,0.00,VWS V13.01,2013-01-14 08:38:00,
2013-01-14 01:43:00,10.2,1.4,30.22,SSW,202,8.0,8.0,67,0.00,,---,0.00,VWS V13.01,2013-01-14 08:43:00,
2013-01-14 01:48:00,10.2,1.4,30.22,SSW,202,8.7,8.7,67,0.00,,---,0.00,VWS V13.01,2013-01-14 08:48:00,
2013-01-14 01:53:00,10.2,1.4,30.22,South,180,0.0,0.0,67,0.00,,---,0.00,VWS V13.01,2013-01-14 08:53:00,
2013-01-14 01:58:00,10.2,1.4,30.22,SSW,202,6.4,6.4,67,0.00,,---,0.00,VWS V13.01,2013-01-14 08:58:00,
2013-01-14 02:04:00,10.4,1.6,30.22,SW,225,8.2,8.2,67,0.00,,---,0.00,VWS V13.01,2013-01-14 09:04:00,
2013-01-14 02:09:00,10.2,1.4,30.23,SSW,202,5.3,5.3,67,0.00,,---,0.00,VWS V13.01,2013-01-14 09:09:00,
2013-01-14 02:14:00,10.4,1.6,30.23,SSW,202,11.6,11.6,67,0.00,,---,0.00,VWS V13.01,2013-01-14 09:14:00,
2013-01-14 02:19:00,10.2,1.4,30.23,SSW,202,7.6,7.6,67,0.00,,---,0.00,VWS V13.01,2013-01-14 09:19:00,
2013-01-14 02:24:00,10.2,1.4,30.23,SSW,202,7.3,7.3,67,0.00,,---,0.00,VWS V13.01,2013-01-14 09:24:00,
2013-01-14 02:30:00,10.2,1.4,30.23,SSW,202,6.9,6.9,67,0.00,,---,0.00,VWS V13.01,2013-01-14 09:30:00,
2013-01-14 02:35:00,10.2,1.4,30.23,SSW,202,6.7,6.7,67,0.00,,---,0.00,VWS V13.01,2013-01-14 09:35:00,
2013-01-14 02:40:00,10.0,1.2,30.23,SSW,202,0.0,5.3,67,0.00,,---,0.00,VWS V13.01,2013-01-14 09:40:00,
2013-01-14 02:45:00,10.0,1.2,30.23,SW,225,5.8,8.9,67,0.00,,---,0.00,VWS V13.01,2013-01-14 09:45:00,
2013-01-14 02:50:00,9.6,0.9,30.23,SW,225,5.5,5.5,67,0.00,,---,0.00,VWS V13.01,2013-01-14 09:50:00,
2013-01-14 02:55:00,9.6,0.9,30.23,SSW,202,8.0,8.2,67,0.00,,---,0.00,VWS V13.01,2013-01-14 09:55:00,
2013-01-14 03:00:00,9.6,0.9,30.23,SSW,202,6.9,7.3,67,0.00,,---,0.00,VWS V13.01,2013-01-14 10:00:00,
2013-01-14 03:05:00,9.6,0.9,30.23,South,180,8.5,8.5,67,0.00,,---,0.00,VWS V13.01,2013-01-14 10:05:00,
2013-01-14 03:10:00,9.6,0.9,30.23,SSW,202,14.7,14.7,67,0.00,,---,0.00,VWS V13.01,2013-01-14 10:10:00,
2013-01-14 03:15:00,9.6,0.9,30.23,SW,225,4.9,10.5,67,0.00,,---,0.00,VWS V13.01,2013-01-14 10:15:00,
2013-01-14 03:20:00,9.6,0.9,30.23,SSW,202,8.2,8.2,67,0.00,,---,0.00,VWS V13.01,2013-01-14 10:20:00,
2013-01-14 03:26:00,9.6,0.9,30.23,SSW,202,6.4,6.4,67,0.00,,---,0.00,VWS V13.01,2013-01-14 10:26:00,
2013-01-14 03:31:00,9.6,0.9,30.23,SSW,202,6.2,6.2,67,0.00,,---,0.00,VWS V13.01,2013-01-14 10:31:00,
2013-01-14 03:36:00,9.6,0.9,30.23,SSW,202,9.6,9.6,67,0.00,,---,0.00,VWS V13.01,2013-01-14 10:36:00,
2013-01-14 03:42:00,9.6,0.9,30.23,SSW,202,11.1,11.1,67,0.00,,---,0.00,VWS V13.01,2013-01-14 10:42:00,
2013-01-14 03:47:00,9.6,0.9,30.23,SSW,202,6.0,7.3,67,0.00,,---,0.00,VWS V13.01,2013-01-14 10:47:00,
2013-01-14 03:53:00,9.6,0.9,30.23,SSW,202,6.4,6.4,67,0.00,,---,0.00,VWS V13.01,2013-01-14 10:53:00,
2013-01-14 03:58:00,9.6,0.9,30.23,SSW,202,6.4,11.6,67,0.00,,---,0.00,VWS V13.01,2013-01-14 10:58:00,
2013-01-14 04:03:00,9.6,0.9,30.23,South,180,5.1,5.1,67,0.00,,---,0.00,VWS V13.01,2013-01-14 11:03:00,
2013-01-14 04:08:00,9.5,0.8,30.23,SSW,202,11.1,11.1,67,0.00,,---,0.00,VWS V13.01,2013-01-14 11:08:00,
2013-01-14 04:14:00,9.5,0.8,30.23,SSW,202,6.2,6.2,67,0.00,,---,0.00,VWS V13.01,2013-01-14 11:14:00,
2013-01-14 04:19:00,9.5,0.8,30.23,SW,225,1.3,8.9,67,0.00,,---,0.00,VWS V13.01,2013-01-14 11:19:00,
2013-01-14 04:25:00,9.5,0.8,30.23,SSW,202,4.2,4.2,67,0.00,,---,0.00,VWS V13.01,2013-01-14 11:25:00,
2013-01-14 04:30:00,9.5,0.8,30.23,SSW,202,9.1,9.1,67,0.00,,---,0.00,VWS V13.01,2013-01-14 11:30:00,
2013-01-14 04:35:00,9.5,0.8,30.22,SSW,202,0.0,0.0,67,0.00,,---,0.00,VWS V13.01,2013-01-14 11:35:00,
2013-01-14 04:40:00,9.5,0.8,30.22,SSW,202,0.0,0.0,67,0.00,,---,0.00,VWS V13.01,2013-01-14 11:40:00,
2013-01-14 04:45:00,9.6,1.2,30.23,SSW,202,8.0,8.0,68,0.00,,---,0.00,VWS V13.01,2013-01-14 11:45:00,
2013-01-14 04:50:00,9.6,1.2,30.22,SSW,202,6.2,6.2,68,0.00,,---,0.00,VWS V13.01,2013-01-14 11:50:00,
2013-01-14 04:55:00,9.6,1.2,30.22,SW,225,0.0,1.3,68,0.00,,---,0.00,VWS V13.01,2013-01-14 11:55:00,
2013-01-14 05:00:00,9.6,1.2,30.22,SSW,202,0.0,4.6,68,0.00,,---,0.00,VWS V13.01,2013-01-14 12:00:00,
2013-01-14 05:05:00,9.6,1.2,30.22,SW,225,1.3,1.3,68,0.00,,---,0.00,VWS V13.01,2013-01-14 12:05:00,
2013-01-14 05:10:00,9.6,1.2,30.22,SW,225,0.0,8.2,68,0.00,,---,0.00,VWS V13.01,2013-01-14 12:10:00,
2013-01-14 05:15:00,9.8,1.4,30.22,WSW,248,0.0,0.0,68,0.00,,---,0.00,VWS V13.01,2013-01-14 12:15:00,
2013-01-14 05:20:00,10.0,1.6,30.22,WSW,248,7.3,7.3,68,0.00,,---,0.00,VWS V13.01,2013-01-14 12:20:00,
2013-01-14 05:25:00,10.0,1.6,30.22,SSW,202,9.3,9.3,68,0.00,,---,0.00,VWS V13.01,2013-01-14 12:25:00,
2013-01-14 05:31:00,10.0,1.6,30.22,SW,225,7.1,7.1,68,0.00,,---,0.00,VWS V13.01,2013-01-14 12:31:00,
2013-01-14 05:36:00,10.0,1.6,30.22,SSW,202,12.3,12.3,68,0.00,,---,0.00,VWS V13.01,2013-01-14 12:36:00,
2013-01-14 05:41:00,9.6,0.9,30.22,South,180,5.1,5.1,67,0.00,,---,0.00,VWS V13.01,2013-01-14 12:41:00,
2013-01-14 05:47:00,9.6,0.9,30.22,SSW,202,9.3,9.3,67,0.00,,---,0.00,VWS V13.01,2013-01-14 12:47:00,
2013-01-14 05:52:00,9.6,0.9,30.22,SSW,202,6.2,6.2,67,0.00,,---,0.00,VWS V13.01,2013-01-14 12:52:00,
2013-01-14 05:57:00,9.6,0.9,30.22,SSW,202,5.8,5.8,67,0.00,,---,0.00,VWS V13.01,2013-01-14 12:57:00,
2013-01-14 06:02:00,9.3,0.6,30.22,SSW,202,6.4,6.4,67,0.00,,---,0.00,VWS V13.01,2013-01-14 13:02:00,
2013-01-14 06:07:00,9.3,0.6,30.22,SSW,202,6.9,6.9,67,0.00,,---,0.00,VWS V13.01,2013-01-14 13:07:00,
2013-01-14 06:12:00,9.1,0.4,30.21,SSW,202,8.7,8.7,67,0.00,,---,0.00,VWS V13.01,2013-01-14 13:12:00,
2013-01-14 06:17:00,8.9,0.2,30.22,SW,225,7.8,11.1,67,0.00,,---,0.00,VWS V13.01,2013-01-14 13:17:00,
2013-01-14 06:22:00,8.7,0.0,30.22,SSW,202,2.0,2.0,67,0.00,,---,0.00,VWS V13.01,2013-01-14 13:22:00,
2013-01-14 06:27:00,8.6,-0.4,30.22,SSW,202,0.0,0.0,66,0.00,,---,0.00,VWS V13.01,2013-01-14 13:27:00,
2013-01-14 06:32:00,8.4,-0.6,30.22,SSW,202,0.0,0.0,66,0.00,,---,0.00,VWS V13.01,2013-01-14 13:32:00,
2013-01-14 06:38:00,7.8,-1.2,30.22,South,180,0.0,0.0,66,0.00,,---,0.00,VWS V13.01,2013-01-14 13:38:00,
2013-01-14 06:43:00,7.7,-1.3,30.22,SSE,158,0.0,0.0,66,0.00,,---,0.00,VWS V13.01,2013-01-14 13:43:00,
2013-01-14 06:48:00,7.5,-1.5,30.22,SE,135,0.0,0.0,66,0.00,,---,0.00,VWS V13.01,2013-01-14 13:48:00,
2013-01-14 06:53:00,7.1,-1.9,30.22,SE,135,0.0,0.0,66,0.00,,---,0.00,VWS V13.01,2013-01-14 13:53:00,
2013-01-14 06:58:00,6.9,-2.0,30.22,SE,135,0.0,0.0,66,0.00,,---,0.00,VWS V13.01,2013-01-14 13:58:00,
2013-01-14 07:03:00,6.9,-2.0,30.22,South,180,0.0,0.0,66,0.00,,---,0.00,VWS V13.01,2013-01-14 14:03:00,
2013-01-14 07:08:00,6.9,-2.0,30.22,SSW,202,0.0,0.0,66,0.00,,---,0.00,VWS V13.01,2013-01-14 14:08:00,
2013-01-14 07:13:00,6.9,-2.0,30.22,SSW,202,2.2,2.2,66,0.00,,---,0.00,VWS V13.01,2013-01-14 14:13:00,
2013-01-14 07:18:00,6.9,-2.0,30.22,SSW,202,2.6,2.6,66,0.00,,---,0.00,VWS V13.01,2013-01-14 14:18:00,
2013-01-14 07:23:00,6.9,-2.0,30.23,South,180,0.0,1.7,66,0.00,,---,0.00,VWS V13.01,2013-01-14 14:23:00,
2013-01-14 07:29:00,6.9,-2.0,30.22,SSW,202,0.0,0.0,66,0.00,,---,0.00,VWS V13.01,2013-01-14 14:29:00,
2013-01-14 07:34:00,6.9,-1.7,30.23,SSW,202,0.0,1.5,67,0.00,,---,0.00,VWS V13.01,2013-01-14 14:34:00,
2013-01-14 07:40:00,6.9,-1.7,30.22,SSW,202,2.4,8.7,67,0.00,,---,0.00,VWS V13.01,2013-01-14 14:40:00,
2013-01-14 07:45:00,6.9,-1.7,30.23,SSW,202,7.1,7.1,67,0.00,,---,0.00,VWS V13.01,2013-01-14 14:45:00,
2013-01-14 07:50:00,6.9,-1.7,30.23,SSW,202,5.8,5.8,67,0.00,,---,0.00,VWS V13.01,2013-01-14 14:50:00,
2013-01-14 07:55:00,6.9,-1.7,30.22,SSW,202,8.7,8.7,67,0.00,,---,0.00,VWS V13.01,2013-01-14 14:55:00,
2013-01-14 08:00:00,6.9,-1.7,30.22,SSW,202,6.4,6.4,67,0.00,,---,0.00,VWS V13.01,2013-01-14 15:00:00,
2013-01-14 08:05:00,6.9,-1.7,30.23,SW,225,6.7,6.7,67,0.00,,---,0.00,VWS V13.01,2013-01-14 15:05:00,
2013-01-14 08:10:00,6.9,-1.7,30.23,SSW,202,13.4,13.4,67,0.00,,---,0.00,VWS V13.01,2013-01-14 15:10:00,
2013-01-14 08:15:00,7.1,-1.5,30.23,SSW,202,8.2,10.9,67,0.00,,---,0.00,VWS V13.01,2013-01-14 15:15:00,
2013-01-14 08:20:00,7.3,-1.3,30.23,SSW,202,10.7,10.7,67,0.00,,---,0.00,VWS V13.01,2013-01-14 15:20:00,
2013-01-14 08:25:00,7.3,-1.3,30.23,South,180,4.6,11.8,67,0.00,,---,0.00,VWS V13.01,2013-01-14 15:25:00,
2013-01-14 08:30:00,7.5,-1.1,30.24,SSW,202,6.4,12.0,67,0.00,,---,0.00,VWS V13.01,2013-01-14 15:30:00,
2013-01-14 08:35:00,7.5,-1.1,30.24,South,180,0.0,0.0,67,0.00,,---,0.00,VWS V13.01,2013-01-14 15:35:00,
2013-01-14 08:40:00,7.5,-1.1,30.24,SSW,202,4.0,4.0,67,0.00,,---,0.00,VWS V13.01,2013-01-14 15:40:00,
2013-01-14 08:45:00,7.5,-1.1,30.24,SSW,202,4.4,4.4,67,0.00,,---,0.00,VWS V13.01,2013-01-14 15:45:00,
2013-01-14 08:50:00,7.5,-1.1,30.24,SSW,202,9.6,9.6,67,0.00,,---,0.00,VWS V13.01,2013-01-14 15:50:00,
2013-01-14 08:56:00,7.5,-1.1,30.23,SSW,202,7.1,7.1,67,0.00,,---,0.00,VWS V13.01,2013-01-14 15:56:00,
2013-01-14 09:01:00,7.7,-1.0,30.23,SSW,202,4.2,4.2,67,0.00,,---,0.00,VWS V13.01,2013-01-14 16:01:00,
2013-01-14 09:06:00,7.7,-1.0,30.23,South,180,0.0,0.0,67,0.00,,---,0.00,VWS V13.01,2013-01-14 16:06:00,
2013-01-14 09:11:00,7.7,-1.0,30.23,West,270,0.0,0.0,67,0.00,,---,0.00,VWS V13.01,2013-01-14 16:11:00,
2013-01-14 09:16:00,7.7,-1.0,30.23,ESE,112,0.0,0.0,67,0.00,,---,0.00,VWS V13.01,2013-01-14 16:16:00,
2013-01-14 09:21:00,7.5,-1.1,30.23,SW,225,0.0,0.0,67,0.00,,---,0.00,VWS V13.01,2013-01-14 16:21:00,
2013-01-14 09:26:00,7.5,-1.5,30.23,South,180,0.0,0.0,66,0.00,,---,0.00,VWS V13.01,2013-01-14 16:26:00,
2013-01-14 09:31:00,7.5,-1.5,30.23,SSW,202,6.2,6.2,66,0.00,,---,0.00,VWS V13.01,2013-01-14 16:31:00,
2013-01-14 09:36:00,7.5,-1.5,30.22,South,180,6.2,6.2,66,0.00,,---,0.00,VWS V13.01,2013-01-14 16:36:00,
2013-01-14 09:41:00,7.5,-1.5,30.22,SSW,202,6.7,6.7,66,0.00,,---,0.00,VWS V13.01,2013-01-14 16:41:00,
2013-01-14 09:46:00,7.7,-1.3,30.22,SW,225,3.1,3.1,66,0.00,,---,0.00,VWS V13.01,2013-01-14 16:46:00,
2013-01-14 09:51:00,7.8,-0.9,30.22,SSW,202,0.0,7.3,67,0.00,,---,0.00,VWS V13.01,2013-01-14 16:51:00,
2013-01-14 09:56:00,7.8,-1.2,30.22,SSW,202,0.0,0.0,66,0.00,,---,0.00,VWS V13.01,2013-01-14 16:56:00,
2013-01-14 10:01:00,7.8,-1.2,30.21,South,180,0.0,0.0,66,0.00,,---,0.00,VWS V13.01,2013-01-14 17:01:00,
2013-01-14 10:06:00,8.0,-1.0,30.21,South,180,0.0,0.0,66,0.00,,---,0.00,VWS V13.01,2013-01-14 17:06:00,
2013-01-14 10:11:00,8.0,-1.0,30.21,WSW,248,0.0,0.0,66,0.00,,---,0.00,VWS V13.01,2013-01-14 17:11:00,
2013-01-14 10:16:00,8.0,-1.0,30.21,WSW,248,0.0,0.0,66,0.00,,---,0.00,VWS V13.01,2013-01-14 17:16:00,
2013-01-14 10:21:00,8.0,-1.0,30.21,ESE,112,0.0,0.0,66,0.00,,---,0.00,VWS V13.01,2013-01-14 17:21:00,
2013-01-14 10:26:00,8.2,-0.8,30.21,SSW,202,0.0,0.0,66,0.00,,---,0.00,VWS V13.01,2013-01-14 17:26:00,
2013-01-14 10:32:00,8.2,-0.8,30.21,SSW,202,7.1,7.1,66,0.00,,---,0.00,VWS V13.01,2013-01-14 17:32:00,
2013-01-14 10:37:00,8.4,-0.6,30.21,SSW,202,0.0,0.0,66,0.00,,---,0.00,VWS V13.01,2013-01-14 17:37:00,
2013-01-14 10:43:00,8.6,-0.4,30.20,SSW,202,1.1,1.1,66,0.00,,---,0.00,VWS V13.01,2013-01-14 17:43:00,
2013-01-14 10:48:00,8.7,-0.3,30.21,SW,225,0.0,0.0,66,0.00,,---,0.00,VWS V13.01,2013-01-14 17:48:00,
2013-01-14 10:53:00,8.9,-0.1,30.20,SSW,202,0.0,5.3,66,0.00,,---,0.00,VWS V13.01,2013-01-14 17:53:00,
2013-01-14 10:58:00,9.1,0.1,30.20,SW,225,0.0,0.0,66,0.00,,---,0.00,VWS V13.01,2013-01-14 17:58:00,
2013-01-14 11:03:00,9.3,0.3,30.20,SSE,158,0.0,0.0,66,0.00,,---,0.00,VWS V13.01,2013-01-14 18:03:00,
2013-01-14 11:08:00,9.3,0.3,30.19,SW,225,0.0,0.0,66,0.00,,---,0.00,VWS V13.01,2013-01-14 18:08:00,
2013-01-14 11:13:00,9.5,0.4,30.18,WSW,248,0.0,0.0,66,0.00,,---,0.00,VWS V13.01,2013-01-14 18:13:00,
2013-01-14 11:18:00,9.6,0.5,30.18,South,180,0.0,0.0,66,0.00,,---,0.00,VWS V13.01,2013-01-14 18:18:00,
2013-01-14 11:23:00,9.6,0.5,30.18,South,180,0.0,0.0,66,0.00,,---,0.00,VWS V13.01,2013-01-14 18:23:00,
2013-01-14 11:28:00,9.6,0.5,30.18,SW,225,0.0,0.0,66,0.00,,---,0.00,VWS V13.01,2013-01-14 18:28:00,
2013-01-14 11:33:00,10.0,0.9,30.18,SSW,202,6.2,6.2,66,0.00,,---,0.00,VWS V13.01,2013-01-14 18:33:00,
2013-01-14 11:38:00,10.5,1.4,30.17,SSW,202,0.0,8.5,66,0.00,,---,0.00,VWS V13.01,2013-01-14 18:38:00,
2013-01-14 11:43:00,10.7,1.6,30.16,SSW,202,2.6,2.6,66,0.00,,---,0.00,VWS V13.01,2013-01-14 18:43:00,
2013-01-14 11:49:00,11.3,2.2,30.16,SSW,202,0.0,8.2,66,0.00,,---,0.00,VWS V13.01,2013-01-14 18:49:00,
2013-01-14 11:54:00,11.4,1.9,30.16,SSW,202,9.8,9.8,65,0.00,,---,0.00,VWS V13.01,2013-01-14 18:54:00,
2013-01-14 11:59:00,11.8,2.3,30.15,SSW,202,10.5,10.5,65,0.00,,---,0.00,VWS V13.01,2013-01-14 18:59:00,
2013-01-14 12:04:00,12.5,3.0,30.15,SSW,202,3.1,6.2,65,0.00,,---,0.00,VWS V13.01,2013-01-14 19:04:00,
2013-01-14 12:09:00,12.7,3.2,30.15,South,180,4.6,4.6,65,0.00,,---,0.00,VWS V13.01,2013-01-14 19:09:00,
2013-01-14 12:14:00,13.1,3.6,30.15,SSW,202,7.1,7.1,65,0.00,,---,0.00,VWS V13.01,2013-01-14 19:14:00,
2013-01-14 12:19:00,13.6,4.0,30.15,SSW,202,12.5,12.5,65,0.00,,---,0.00,VWS V13.01,2013-01-14 19:19:00,
2013-01-14 12:24:00,13.8,3.9,30.14,SSW,202,9.3,9.3,64,0.00,,---,0.00,VWS V13.01,2013-01-14 19:24:00,
2013-01-14 12:29:00,14.3,4.4,30.13,SW,225,6.9,11.4,64,0.00,,---,0.00,VWS V13.01,2013-01-14 19:29:00,
2013-01-14 12:35:00,14.7,4.8,30.13,SW,225,4.9,4.9,64,0.00,,---,0.00,VWS V13.01,2013-01-14 19:35:00,
2013-01-14 12:40:00,14.9,4.6,30.13,SW,225,7.6,7.6,63,0.00,,---,0.00,VWS V13.01,2013-01-14 19:40:00,
2013-01-14 12:45:00,15.2,4.9,30.13,SSW,202,0.0,0.0,63,0.00,,---,0.00,VWS V13.01,2013-01-14 19:45:00,
2013-01-14 12:50:00,15.4,5.1,30.13,SW,225,3.1,3.1,63,0.00,,---,0.00,VWS V13.01,2013-01-14 19:50:00,
2013-01-14 12:55:00,15.8,5.1,30.12,SW,225,7.8,7.8,62,0.00,,---,0.00,VWS V13.01,2013-01-14 19:55:00,
2013-01-14 13:00:00,15.9,5.2,30.12,SW,225,4.9,4.9,62,0.00,,---,0.00,VWS V13.01,2013-01-14 20:00:00,
2013-01-14 13:05:00,16.1,5.4,30.11,SSW,202,4.9,4.9,62,0.00,,---,0.00,VWS V13.01,2013-01-14 20:05:00,
2013-01-14 13:10:00,16.3,5.6,30.11,SSW,202,4.9,9.3,62,0.00,,---,0.00,VWS V13.01,2013-01-14 20:10:00,
2013-01-14 13:15:00,16.3,5.2,30.11,SSW,202,4.2,4.2,61,0.00,,---,0.00,VWS V13.01,2013-01-14 20:15:00,
2013-01-14 13:20:00,16.5,5.4,30.11,West,270,5.1,5.1,61,0.00,,---,0.00,VWS V13.01,2013-01-14 20:20:00,
2013-01-14 13:25:00,16.7,5.6,30.11,SW,225,6.7,6.7,61,0.00,,---,0.00,VWS V13.01,2013-01-14 20:25:00,
2013-01-14 13:30:00,16.8,5.7,30.11,SW,225,5.3,5.3,61,0.00,,---,0.00,VWS V13.01,2013-01-14 20:30:00,
2013-01-14 13:35:00,16.8,5.7,30.11,West,270,2.4,2.4,61,0.00,,---,0.00,VWS V13.01,2013-01-14 20:35:00,
2013-01-14 13:41:00,17.2,6.1,30.11,WSW,248,5.5,5.5,61,0.00,,---,0.00,VWS V13.01,2013-01-14 20:41:00,
2013-01-14 13:46:00,17.2,5.7,30.10,SW,225,2.0,5.5,60,0.00,,---,0.00,VWS V13.01,2013-01-14 20:46:00,
2013-01-14 13:51:00,17.4,5.9,30.10,WSW,248,6.7,7.1,60,0.00,,---,0.00,VWS V13.01,2013-01-14 20:51:00,
2013-01-14 13:56:00,17.7,6.2,30.10,South,180,4.9,4.9,60,0.00,,---,0.00,VWS V13.01,2013-01-14 20:56:00,
2013-01-14 14:01:00,17.7,6.2,30.10,SW,225,4.6,4.6,60,0.00,,---,0.00,VWS V13.01,2013-01-14 21:01:00,
2013-01-14 14:06:00,17.7,5.8,30.10,WSW,248,11.8,11.8,59,0.00,,---,0.00,VWS V13.01,2013-01-14 21:06:00,
2013-01-14 14:11:00,17.7,5.8,30.10,SW,225,5.3,5.3,59,0.00,,---,0.00,VWS V13.01,2013-01-14 21:11:00,
2013-01-14 14:16:00,17.7,5.8,30.10,SW,225,0.0,6.4,59,0.00,,---,0.00,VWS V13.01,2013-01-14 21:16:00,
2013-01-14 14:21:00,17.6,5.7,30.10,SW,225,6.0,6.0,59,0.00,,---,0.00,VWS V13.01,2013-01-14 21:21:00,
2013-01-14 14:26:00,17.7,5.8,30.11,SW,225,10.2,10.2,59,0.00,,---,0.00,VWS V13.01,2013-01-14 21:26:00,
2013-01-14 14:31:00,17.7,5.8,30.11,SSW,202,6.2,6.2,59,0.00,,---,0.00,VWS V13.01,2013-01-14 21:31:00,
2013-01-14 14:36:00,17.7,5.8,30.11,WSW,248,4.9,4.9,59,0.00,,---,0.00,VWS V13.01,2013-01-14 21:36:00,
2013-01-14 14:41:00,17.7,5.8,30.11,WSW,248,1.5,1.5,59,0.00,,---,0.00,VWS V13.01,2013-01-14 21:41:00,
2013-01-14 14:46:00,17.7,5.4,30.11,WSW,248,1.3,8.2,58,0.00,,---,0.00,VWS V13.01,2013-01-14 21:46:00,
2013-01-14 14:51:00,17.7,5.4,30.11,WSW,248,5.5,5.5,58,0.00,,---,0.00,VWS V13.01,2013-01-14 21:51:00,
2013-01-14 14:56:00,17.7,5.4,30.11,WSW,248,4.0,4.0,58,0.00,,---,0.00,VWS V13.01,2013-01-14 21:56:00,
2013-01-14 15:01:00,17.7,5.4,30.12,SW,225,0.0,0.0,58,0.00,,---,0.00,VWS V13.01,2013-01-14 22:01:00,
2013-01-14 15:06:00,17.7,5.8,30.11,SW,225,7.3,7.3,59,0.00,,---,0.00,VWS V13.01,2013-01-14 22:06:00,
2013-01-14 15:11:00,17.7,5.4,30.11,SW,225,6.2,6.2,58,0.00,,---,0.00,VWS V13.01,2013-01-14 22:11:00,
2013-01-14 15:17:00,17.7,5.4,30.10,SSW,202,7.3,7.3,58,0.00,,---,0.00,VWS V13.01,2013-01-14 22:17:00,
2013-01-14 15:22:00,17.6,5.3,30.11,SW,225,5.8,5.8,58,0.00,,---,0.00,VWS V13.01,2013-01-14 22:22:00,
2013-01-14 15:27:00,17.4,5.2,30.11,SW,225,6.4,9.6,58,0.00,,---,0.00,VWS V13.01,2013-01-14 22:27:00,
2013-01-14 15:32:00,17.6,5.3,30.11,SW,225,5.1,5.1,58,0.00,,---,0.00,VWS V13.01,2013-01-14 22:32:00,
2013-01-14 15:37:00,17.4,5.2,30.11,SW,225,4.6,4.6,58,0.00,,---,0.00,VWS V13.01,2013-01-14 22:37:00,
2013-01-14 15:42:00,17.4,5.2,30.11,SSW,202,5.5,5.5,58,0.00,,---,0.00,VWS V13.01,2013-01-14 22:42:00,
2013-01-14 15:47:00,17.4,5.2,30.11,SSW,202,5.8,12.5,58,0.00,,---,0.00,VWS V13.01,2013-01-14 22:47:00,
2013-01-14 15:52:00,17.2,5.0,30.11,SSW,202,8.9,8.9,58,0.00,,---,0.00,VWS V13.01,2013-01-14 22:52:00,
2013-01-14 15:57:00,17.2,5.0,30.11,SSW,202,4.4,9.6,58,0.00,,---,0.00,VWS V13.01,2013-01-14 22:57:00,
2013-01-14 16:02:00,17.2,5.0,30.11,West,270,5.3,5.3,58,0.00,,---,0.00,VWS V13.01,2013-01-14 23:02:00,
2013-01-14 16:07:00,17.0,4.8,30.12,WSW,248,0.0,0.0,58,0.00,,---,0.00,VWS V13.01,2013-01-14 23:07:00,
2013-01-14 16:12:00,16.8,4.6,30.12,SW,225,6.4,9.8,58,0.00,,---,0.00,VWS V13.01,2013-01-14 23:12:00,
2013-01-14 16:17:00,16.8,4.6,30.12,SSW,202,5.3,5.3,58,0.00,,---,0.00,VWS V13.01,2013-01-14 23:17:00,
2013-01-14 16:22:00,16.8,4.6,30.12,SW,225,5.3,5.3,58,0.00,,---,0.00,VWS V13.01,2013-01-14 23:22:00,
2013-01-14 16:27:00,16.7,4.9,30.12,SSW,202,10.0,10.0,59,0.00,,---,0.00,VWS V13.01,2013-01-14 23:27:00,
2013-01-14 16:32:00,16.5,4.7,30.13,SW,225,5.3,5.3,59,0.00,,---,0.00,VWS V13.01,2013-01-14 23:32:00,
2013-01-14 16:37:00,16.5,4.7,30.13,SW,225,8.0,8.0,59,0.00,,---,0.00,VWS V13.01,2013-01-14 23:37:00,
2013-01-14 16:42:00,16.3,4.5,30.13,WSW,248,2.6,5.8,59,0.00,,---,0.00,VWS V13.01,2013-01-14 23:42:00,
2013-01-14 16:47:00,16.3,4.5,30.13,WSW,248,5.5,5.5,59,0.00,,---,0.00,VWS V13.01,2013-01-14 23:47:00,
2013-01-14 16:52:00,16.3,4.5,30.13,SSW,202,0.0,0.0,59,0.00,,---,0.00,VWS V13.01,2013-01-14 23:52:00,
2013-01-14 16:57:00,15.9,4.1,30.13,South,180,6.7,6.7,59,0.00,,---,0.00,VWS V13.01,2013-01-14 23:57:00,
2013-01-14 17:02:00,15.9,4.1,30.12,WSW,248,0.0,0.0,59,0.00,,---,0.00,VWS V13.01,2013-01-15 00:02:00,
2013-01-14 17:07:00,15.8,4.0,30.13,SSW,202,5.3,5.3,59,0.00,,---,0.00,VWS V13.01,2013-01-15 00:07:00,
2013-01-14 17:12:00,15.6,4.2,30.12,SW,225,0.0,1.1,60,0.00,,---,0.00,VWS V13.01,2013-01-15 00:12:00,
2013-01-14 17:17:00,15.6,4.2,30.12,SSW,202,11.6,11.6,60,0.00,,---,0.00,VWS V13.01,2013-01-15 00:17:00,
2013-01-14 17:22:00,15.4,4.0,30.13,SW,225,9.1,9.1,60,0.00,,---,0.00,VWS V13.01,2013-01-15 00:22:00,
2013-01-14 17:27:00,15.2,3.5,30.12,SSW,202,5.3,13.4,59,0.00,,---,0.00,VWS V13.01,2013-01-15 00:27:00,
2013-01-14 17:32:00,15.2,3.5,30.12,SW,225,2.0,2.0,59,0.00,,---,0.00,VWS V13.01,2013-01-15 00:32:00,
2013-01-14 17:37:00,15.0,3.3,30.12,SSW,202,8.5,8.5,59,0.00,,---,0.00,VWS V13.01,2013-01-15 00:37:00,
2013-01-14 17:42:00,14.9,3.2,30.12,South,180,3.5,5.8,59,0.00,,---,0.00,VWS V13.01,2013-01-15 00:42:00,
2013-01-14 17:47:00,14.7,3.3,30.12,SSW,202,8.0,8.0,60,0.00,,---,0.00,VWS V13.01,2013-01-15 00:47:00,
2013-01-14 17:52:00,14.7,3.3,30.12,South,180,5.3,5.3,60,0.00,,---,0.00,VWS V13.01,2013-01-15 00:52:00,
2013-01-14 17:57:00,14.5,3.2,30.12,SSW,202,5.5,5.5,60,0.00,,---,0.00,VWS V13.01,2013-01-15 00:57:00,
2013-01-14 18:02:00,14.5,3.2,30.12,South,180,0.0,0.0,60,0.00,,---,0.00,VWS V13.01,2013-01-15 01:02:00,
2013-01-14 18:07:00,14.3,3.0,30.12,SSW,202,3.8,3.8,60,0.00,,---,0.00,VWS V13.01,2013-01-15 01:07:00,
2013-01-14 18:12:00,14.1,2.8,30.13,SSW,202,1.5,1.5,60,0.00,,---,0.00,VWS V13.01,2013-01-15 01:12:00,
2013-01-14 18:17:00,14.1,2.8,30.13,SSW,202,1.3,1.3,60,0.00,,---,0.00,VWS V13.01,2013-01-15 01:17:00,
2013-01-14 18:22:00,14.1,2.8,30.13,South,180,5.8,5.8,60,0.00,,---,0.00,VWS V13.01,2013-01-15 01:22:00,
2013-01-14 18:27:00,14.1,3.1,30.12,SSW,202,5.5,5.5,61,0.00,,---,0.00,VWS V13.01,2013-01-15 01:27:00,
2013-01-14 18:32:00,14.1,3.1,30.12,SW,225,6.9,6.9,61,0.00,,---,0.00,VWS V13.01,2013-01-15 01:32:00,
2013-01-14 18:37:00,14.0,3.0,30.12,SW,225,0.0,0.0,61,0.00,,---,0.00,VWS V13.01,2013-01-15 01:37:00,
2013-01-14 18:42:00,13.8,2.8,30.12,SSW,202,4.4,4.4,61,0.00,,---,0.00,VWS V13.01,2013-01-15 01:42:00,
2013-01-14 18:47:00,13.8,2.8,30.13,SW,225,6.0,6.0,61,0.00,,---,0.00,VWS V13.01,2013-01-15 01:47:00,
2013-01-14 18:52:00,13.8,2.8,30.13,SW,225,0.0,0.0,61,0.00,,---,0.00,VWS V13.01,2013-01-15 01:52:00,
2013-01-14 18:57:00,14.1,3.1,30.13,SSW,202,6.7,6.7,61,0.00,,---,0.00,VWS V13.01,2013-01-15 01:57:00,
2013-01-14 19:02:00,14.1,3.1,30.12,SSW,202,10.0,10.0,61,0.00,,---,0.00,VWS V13.01,2013-01-15 02:02:00,
2013-01-14 19:07:00,14.1,3.1,30.13,SSW,202,11.6,11.6,61,0.00,,---,0.00,VWS V13.01,2013-01-15 02:07:00,
2013-01-14 19:12:00,14.1,3.1,30.12,WSW,248,8.2,10.0,61,0.00,,---,0.00,VWS V13.01,2013-01-15 02:12:00,
2013-01-14 19:17:00,14.1,3.5,30.13,SW,225,7.8,7.8,62,0.00,,---,0.00,VWS V13.01,2013-01-15 02:17:00,
2013-01-14 19:22:00,14.1,3.5,30.12,South,180,7.1,7.1,62,0.00,,---,0.00,VWS V13.01,2013-01-15 02:22:00,
2013-01-14 19:27:00,14.1,3.5,30.11,SSW,202,9.6,16.5,62,0.00,,---,0.00,VWS V13.01,2013-01-15 02:27:00,
2013-01-14 19:32:00,14.1,3.5,30.11,SSW,202,9.1,9.1,62,0.00,,---,0.00,VWS V13.01,2013-01-15 02:32:00,
2013-01-14 19:37:00,14.3,3.7,30.10,SSW,202,16.1,16.1,62,0.00,,---,0.00,VWS V13.01,2013-01-15 02:37:00,
2013-01-14 19:42:00,14.1,3.5,30.11,SSW,202,5.3,6.4,62,0.00,,---,0.00,VWS V13.01,2013-01-15 02:42:00,
2013-01-14 19:47:00,14.1,3.5,30.11,SSW,202,6.0,6.0,62,0.00,,---,0.00,VWS V13.01,2013-01-15 02:47:00,
2013-01-14 19:52:00,14.1,3.5,30.12,SW,225,6.7,6.7,62,0.00,,---,0.00,VWS V13.01,2013-01-15 02:52:00,
2013-01-14 19:57:00,14.3,3.7,30.12,WSW,248,12.0,12.0,62,0.00,,---,0.00,VWS V13.01,2013-01-15 02:57:00,
2013-01-14 20:02:00,14.3,3.7,30.12,WSW,248,4.2,4.2,62,0.00,,---,0.00,VWS V13.01,2013-01-15 03:02:00,
2013-01-14 20:07:00,14.5,3.9,30.12,WSW,248,9.3,9.3,62,0.00,,---,0.00,VWS V13.01,2013-01-15 03:07:00,
2013-01-14 20:12:00,14.5,3.5,30.12,SW,225,4.4,7.3,61,0.00,,---,0.00,VWS V13.01,2013-01-15 03:12:00,
2013-01-14 20:17:00,14.5,3.5,30.11,SSW,202,0.0,0.0,61,0.00,,---,0.00,VWS V13.01,2013-01-15 03:17:00,
2013-01-14 20:22:00,14.5,3.5,30.11,South,180,10.2,10.2,61,0.00,,---,0.00,VWS V13.01,2013-01-15 03:22:00,
2013-01-14 20:28:00,14.7,4.1,30.10,SSW,202,6.9,6.9,62,0.00,,---,0.00,VWS V13.01,2013-01-15 03:28:00,
2013-01-14 20:33:00,14.7,4.1,30.11,South,180,5.3,6.0,62,0.00,,---,0.00,VWS V13.01,2013-01-15 03:33:00,
2013-01-14 20:38:00,14.7,4.1,30.11,SSW,202,16.1,16.1,62,0.00,,---,0.00,VWS V13.01,2013-01-15 03:38:00,
2013-01-14 20:43:00,14.9,4.2,30.11,SW,225,9.6,9.6,62,0.00,,---,0.00,VWS V13.01,2013-01-15 03:43:00,
2013-01-14 20:48:00,14.9,4.2,30.11,SSW,202,7.3,17.0,62,0.00,,---,0.00,VWS V13.01,2013-01-15 03:48:00,
2013-01-14 20:53:00,15.0,4.3,30.11,SSW,202,8.0,8.2,62,0.00,,---,0.00,VWS V13.01,2013-01-15 03:53:00,
2013-01-14 20:58:00,15.0,4.3,30.11,SSW,202,9.8,9.8,62,0.00,,---,0.00,VWS V13.01,2013-01-15 03:58:00,
2013-01-14 21:03:00,15.0,4.3,30.11,SSW,202,7.6,12.9,62,0.00,,---,0.00,VWS V13.01,2013-01-15 04:03:00,
2013-01-14 21:08:00,15.0,4.3,30.11,SSW,202,2.9,8.5,62,0.00,,---,0.00,VWS V13.01,2013-01-15 04:08:00,
2013-01-14 21:13:00,15.0,4.3,30.11,West,270,7.3,7.3,62,0.00,,---,0.00,VWS V13.01,2013-01-15 04:13:00,
2013-01-14 21:18:00,15.2,4.5,30.10,SW,225,9.1,9.1,62,0.00,,---,0.00,VWS V13.01,2013-01-15 04:18:00,
2013-01-14 21:23:00,15.2,4.5,30.10,SW,225,3.5,3.5,62,0.00,,---,0.00,VWS V13.01,2013-01-15 04:23:00,
2013-01-14 21:28:00,15.4,4.7,30.10,SSW,202,5.8,5.8,62,0.00,,---,0.00,VWS V13.01,2013-01-15 04:28:00,
2013-01-14 21:33:00,15.4,4.7,30.10,SSW,202,3.5,7.3,62,0.00,,---,0.00,VWS V13.01,2013-01-15 04:33:00,
2013-01-14 21:38:00,15.6,4.9,30.10,SW,225,6.2,6.2,62,0.00,,---,0.00,VWS V13.01,2013-01-15 04:38:00,
2013-01-14 21:43:00,15.6,4.9,30.10,SSW,202,10.7,10.7,62,0.00,,---,0.00,VWS V13.01,2013-01-15 04:43:00,
2013-01-14 21:48:00,15.6,4.9,30.10,SSW,202,11.1,11.8,62,0.00,,---,0.00,VWS V13.01,2013-01-15 04:48:00,
2013-01-14 21:53:00,15.6,4.9,30.10,South,180,7.3,7.3,62,0.00,,---,0.00,VWS V13.01,2013-01-15 04:53:00,
2013-01-14 21:58:00,15.6,4.9,30.10,SW,225,5.3,5.3,62,0.00,,---,0.00,VWS V13.01,2013-01-15 04:58:00,
2013-01-14 22:00:00,15.6,4.9,30.09,SSW,202,11.4,11.4,62,0.00,,---,0.00,VWS V13.01,2013-01-15 05:00:00,
2013-01-14 22:01:00,15.6,4.9,30.09,SSW,202,2.4,11.4,62,0.00,,---,0.00,VWS V13.01,2013-01-15 05:01:00,
2013-01-14 22:03:00,15.6,4.9,30.10,SSW,202,0.0,0.0,62,0.00,,---,0.00,VWS V13.01,2013-01-15 05:03:00,
2013-01-14 22:09:00,15.6,4.9,30.10,SW,225,6.9,6.9,62,0.00,,---,0.00,VWS V13.01,2013-01-15 05:09:00,
2013-01-14 22:14:00,15.6,4.9,30.11,SW,225,8.2,9.3,62,0.00,,---,0.00,VWS V13.01,2013-01-15 05:14:00,
2013-01-14 22:19:00,15.6,4.9,30.10,SW,225,0.0,0.0,62,0.00,,---,0.00,VWS V13.01,2013-01-15 05:19:00,
2013-01-14 22:25:00,15.6,4.9,30.11,SW,225,2.0,5.3,62,0.00,,---,0.00,VWS V13.01,2013-01-15 05:25:00,
2013-01-14 22:30:00,15.8,5.1,30.10,WSW,248,0.0,0.0,62,0.00,,---,0.00,VWS V13.01,2013-01-15 05:30:00,
2013-01-14 22:35:00,15.8,5.1,30.11,WSW,248,0.0,8.2,62,0.00,,---,0.00,VWS V13.01,2013-01-15 05:35:00,
2013-01-14 22:40:00,15.9,5.2,30.10,SW,225,6.0,6.0,62,0.00,,---,0.00,VWS V13.01,2013-01-15 05:40:00,
2013-01-14 22:45:00,15.9,5.6,30.10,SSW,202,6.7,6.7,63,0.00,,---,0.00,VWS V13.01,2013-01-15 05:45:00,
2013-01-14 22:50:00,15.9,5.6,30.10,WSW,248,0.0,0.0,63,0.00,,---,0.00,VWS V13.01,2013-01-15 05:50:00,
2013-01-14 22:55:00,16.1,5.7,30.10,SW,225,2.6,7.3,63,0.00,,---,0.00,VWS V13.01,2013-01-15 05:55:00,
2013-01-14 23:00:00,16.1,5.7,30.10,SSW,202,15.4,15.4,63,0.00,,---,0.00,VWS V13.01,2013-01-15 06:00:00,
2013-01-14 23:05:00,16.3,5.9,30.10,WSW,248,12.7,12.7,63,0.00,,---,0.00,VWS V13.01,2013-01-15 06:05:00,
2013-01-14 23:10:00,16.3,5.6,30.10,SW,225,8.7,8.7,62,0.00,,---,0.00,VWS V13.01,2013-01-15 06:10:00,
2013-01-14 23:15:00,16.3,5.6,30.10,SSW,202,6.9,6.9,62,0.00,,---,0.00,VWS V13.01,2013-01-15 06:15:00,
2013-01-14 23:20:00,16.3,5.6,30.10,SW,225,10.7,10.7,62,0.00,,---,0.00,VWS V13.01,2013-01-15 06:20:00,
2013-01-14 23:26:00,16.3,5.9,30.09,WSW,248,7.8,7.8,63,0.00,,---,0.00,VWS V13.01,2013-01-15 06:26:00,
2013-01-14 23:31:00,16.5,6.1,30.09,SW,225,0.0,8.0,63,0.00,,---,0.00,VWS V13.01,2013-01-15 06:31:00,
2013-01-14 23:36:00,16.7,6.3,30.09,SW,225,8.5,8.5,63,0.00,,---,0.00,VWS V13.01,2013-01-15 06:36:00,
2013-01-14 23:41:00,16.7,6.3,30.09,SW,225,3.8,3.8,63,0.00,,---,0.00,VWS V13.01,2013-01-15 06:41:00,
2013-01-14 23:46:00,16.8,6.4,30.08,SSW,202,11.6,17.6,63,0.00,,---,0.00,VWS V13.01,2013-01-15 06:46:00,
2013-01-14 23:51:00,16.8,6.4,30.08,SW,225,6.0,6.0,63,0.00,,---,0.00,VWS V13.01,2013-01-15 06:51:00,
2013-01-14 23:56:00,16.8,6.4,30.09,WSW,248,10.2,10.2,63,0.00,,---,0.00,VWS V13.01,2013-01-15 06:56:00,